Find Starlink 30949

NORAD ID: 58415 Int'l Des: 2023-180 Owner: SPXS Country: US Constellation: starlink operational
LEOCIRCULAR

リアルタイム位置

3D地球を読み込み中...

Starlink 30949について

説明を読み込み中...

次回通過

Passes for default location (London). Set your location on the main map for personalized predictions.

高度履歴

Loading altitude history...

軌道要素

1 58415U 23180P 26130.20733895 .00003195 00000-0 12560-3 0 9991
2 58415 43.0043 65.1601 0001414 221.3866 138.6878 15.27577855137033
Epoch: May 10, 2026 • Age: 7 hours

現在のステータス

高度 494.7 km
速度 7.62 km/s
衛星直下点 -40.96°S, 102.49°W
打ち上げ日 Nov 22, 2023
運用期間 2.4 years
タイプ internet

技術仕様

分類 Payload
質量 730.00 kg
乾燥質量 700.00 kg
総質量 730.00 kg
長さ 0.30 m
直径 4.10 m
スパン 29.00 m
形状 Box + pan
製造者 SPXS
バスタイプ Starlink V2M
フェーズステータス In Orbit
所有者/国 SPXS/US

Most Searched